Home > Weather > Trujillo > Past weeks

Flag for Peru Weather for the Past 2 Weeks in Trujillo, La Libertad, Peru

Now
75 °F

More clouds than sun.


Feels Like: 75 °F
Forecast: 74 / 83 °F
Wind: 12 mph from Southeast

Location: Trujillo Airport

Current Time: Feb 8, 2016 at 1:03:09 PM

Latest Report: Feb 8, 2016 at 12:00 PM


Visibility: N/A

Pressure: 29.86 "Hg

Humidity: 83%

Dew point: 70 °F

Location of TrujilloLocation

Historic Weather in Trujillo — Graph

°F

Trujillo Temperature Yesterday

Maximum temperature yesterday: 77 °F (at 12:00 PM)
Minimum temperature yesterday: 72 °F (at 1:00 AM)
Average temperature yesterday: 74 °F

High & Low Weather Summary for the Past Weeks

 TemperatureHumidityPressure
High79 °F (Jan 29, 1:00 PM)94% (Jan 26, 7:00 AM)29.98 "Hg (Jan 26, 7:00 AM)
Low70 °F (Jan 25, 6:00 AM)65% (Jan 25, 10:00 AM)29.74 "Hg (Feb 7, 4:00 PM)
Average74 °F85%29.86 "Hg
* Reported Jan 24 12:00 Noon — Feb 8 12:00 Noon, Trujillo, Weather by CustomWeather, © 2016

Note: Actual official high and low records may vary slightly from our data, if they occured in-between our weather recording intervals... More about our weather records

Advertising

Trujillo Weather History for the Previous 24 Hours

 ConditionsComfort  
Time TempWeatherWind HumidityBarometerVisibility
12:00 PM
Mon, Feb 8
75 °FMore clouds than sun.12 mph83%29.86 "HgN/A
11:00 AM75 °FOvercast.9 mph83%29.86 "HgN/A
10:00 AM75 °FMostly cloudy.9 mph83%29.89 "HgN/A
9:00 AM75 °FOvercast.8 mph83%29.89 "HgN/A
8:00 AM73 °FMostly cloudy.7 mph89%29.86 "HgN/A
7:00 AM73 °FMostly cloudy.7 mph83%29.86 "Hg5 mi
6:00 AM72 °FOvercast.7 mph94%29.83 "Hg6 mi
5:00 AM72 °FOvercast.7 mph94%29.83 "Hg6 mi
4:00 AM73 °FOvercast.7 mph89%29.80 "Hg6 mi
3:00 AM73 °FOvercast.6 mph89%29.83 "HgN/A
2:00 AM73 °FOvercast.6 mph89%29.83 "HgN/A
1:00 AM73 °FOvercast.7 mph89%29.83 "Hg6 mi
12:00 AM73 °FOvercast.5 mph89%29.83 "Hg6 mi
11:00 PM
Sun, Feb 7
73 °FOvercast.7 mph89%29.86 "HgN/A
10:00 PM73 °FOvercast.9 mph89%29.86 "HgN/A
9:00 PM75 °FOvercast.12 mph83%29.83 "HgN/A
8:00 PM73 °FOvercast.13 mph89%29.80 "HgN/A
7:00 PM73 °FOvercast.12 mph89%29.77 "HgN/A
6:00 PM75 °FOvercast.13 mph83%29.74 "HgN/A
5:00 PM75 °FScattered clouds.13 mph83%29.74 "HgN/A
4:00 PM75 °FPassing clouds.13 mph83%29.74 "HgN/A
3:00 PM77 °FScattered clouds.13 mph79%29.77 "Hg6 mi
2:00 PM77 °FSunny.14 mph79%29.80 "Hg10 mi
1:00 PM77 °FSunny.14 mph79%29.80 "Hg10 mi
Weather by CustomWeather, © 2016

See weather overviewHow to use our weather pages